Regional Weather Roundup
Issued by NWS Sioux Falls, SD

Home | Current Version | Previous Version | Text Only | Print | Product List | Glossary On
Versions: 1 2 3 4 5 6 7 8 9 10 11 12 13 14 15 16 17 18 19 20 21 22 23 24 25 26 27 28 29 30 31 32 33 34 35 36 37 38 39 40 41 42 43 44 45 46 47 48 49 50
000
ASUS43 KFSD 221410
RWRFSD

WEATHER ROUNDUP FOR SE SOUTH DAKOTA/SW MINNESOTA/NW IOWA
NATIONAL WEATHER SERVICE SIOUX FALLS SD
900 AM CDT FRI AUG 22 2014

NOTE: "FAIR" INDICATES FEW OR NO CLOUDS BELOW 12,000 FEET WITH NO
SIGNIFICANT WEATHER AND OR OBSTRUCTIONS TO VISIBILITY.


SDZ038>040-050-052>070-221500-
SOUTHEAST SOUTH DAKOTA

CITY           SKY/WX    TMP DP  RH WIND       PRES   REMARKS
CHAMBERLAIN    PTSUNNY   70  65  85 NE5       30.00S
HURON          MOSUNNY   69  65  86 NW5       29.97S
MADISON        FAIR      68  68 100 NE5       29.99R
MITCHELL       FOG       67  67 100 N7        29.98R VSB 1/4
SIOUX FALLS    MOSUNNY   74  69  85 NE6       29.96R
WINNER         FAIR      72  66  81 NE5       30.00F
YANKTON        SUNNY     72  70  94 CALM      29.94R
$$

MNZ071-072-080-081-089-090-097-098-221500-
SOUTHWEST MINNESOTA

CITY           SKY/WX    TMP DP  RH WIND       PRES   REMARKS
FAIRMONT       CLOUDY    70  64  83 N7        29.95R VSB 3/4
JACKSON        FOG       72  70  94 NE7       29.97R VSB 1/4
LUVERNE        CLOUDY    72  68  88 NE6       29.96R
MARSHALL       CLOUDY    68  64  88 CALM      29.97R VSB<1/4
MONTEVIDEO     PTSUNNY   75  75 100 CALM      29.96R FOG
PIPESTONE      SUNNY     73  70  88 NE9       29.98R
REDWOOD FALLS  CLOUDY    73  71  93 N5        29.95R FOG
TRACY          CLOUDY    71  70  98 CALM      29.97R FOG
WINDOM         CLOUDY    72  70  94 NE6       29.97R FOG
WORTHINGTON    CLOUDY    72  14  11 NE10      29.98R
$$

IAZ001>003-012>014-020>022-031-032-NEZ013-014-SDZ071-221500-
NORTHWEST IOWA

CITY           SKY/WX    TMP DP  RH WIND       PRES   REMARKS
CHEROKEE       SUNNY     74  72  92 NE6       29.92R
DENISON        SUNNY     77  73  88 CALM      29.91S
ESTHERVILLE    FOG       71  71 100 NE7       29.94S VSB<1/4
LE MARS        SUNNY     73  70  88 N6        29.93R
ORANGE CITY    SUNNY     75  70  83 NE6       29.94R
SHELDON        FOG       72  72 100 E5        29.94R VSB<1/4
SIOUX CITY     SUNNY     79  72  79 CALM      29.92R
SPENCER        FOG       73  72  96 NE10      29.95R VSB 1
STORM LAKE     SUNNY     73  73 100 NE6       29.94R
$$

ABBREVIATIONS USED IN REMARKS
   TC - TEMPERATURE IN CELSIUS
  WCI - WIND CHILL INDEX
   HX - HEAT INDEX
  VSB - VISIBILITY




USA.gov is the U.S. government's official web portal to all federal, state and local government web resources and services.